Regional Weather Roundup
Issued by NWS

Home | Current Version | Previous Version | Text Only | Print | Product List | Glossary On
Versions: 1 2 3 4 5 6 7 8 9 10 11 12 13 14 15 16 17 18 19 20 21 22 23 24 25 26 27 28 29 30 31 32 33 34 35 36 37 38 39 40 41 42 43 44 45 46 47 48 49 50
000
ASUS43 KTOP 151859
RWRKS

WEATHER ROUNDUP FOR KANSAS
NATIONAL WEATHER SERVICE GOODLAND KS
100 PM CST FRI DEC 15 2017

NOTE:  "FAIR" INDICATES FEW OR NO CLOUDS BELOW 12,000 FEET WITH NO
SIGNIFICANT WEATHER AND/OR OBSTRUCTIONS TO VISIBILITY.

KSZ001>006-013>018-027>032-041>047-152000-
NORTHWEST KANSAS

CITY           SKY/WX    TMP DP  RH WIND       PRES   REMARKS
GOODLAND       SUNNY     56   6  13 SW15      29.97F
HAYS           SUNNY     53  23  31 SW22G28   30.02F
HILL CITY      SUNNY     55  21  26 SW14      30.00F
RUSSELL        SUNNY     49  25  39 SW17      30.02F
$$

KSZ061>065-074>080-084>089-152000-
SOUTHWEST KANSAS

CITY           SKY/WX    TMP DP  RH WIND       PRES   REMARKS
DODGE CITY     SUNNY     52  23  32 SW17G25   30.07F
GARDEN CITY    SUNNY     51  21  30 SW14      30.06F
GREAT BEND     SUNNY     52  22  30 SW16G23   30.05F
LIBERAL        SUNNY     50  25  37 SW14      30.09F
$$

KSZ066>073-081>083-090>101-152000-
SOUTHEAST KANSAS

CITY           SKY/WX    TMP DP  RH WIND       PRES   REMARKS
CHANUTE        SUNNY     46  24  42 W14       30.16F
COFFEYVILLE    SUNNY     48  25  40 SW8       30.18F
HUTCHINSON     SUNNY     49  25  39 SW13      30.09F
MEDICINE LODGE   N/A     48  24  39 SW10      30.13F
NEWTON         SUNNY     46  25  43 SW17      30.08F
PARSONS        SUNNY     47  25  42 W12       30.17F
WICHITA INTL   SUNNY     49  27  42 SW17      30.13F
WICHITA JABRA  SUNNY     46  27  47 SW16      30.12F
WICHITA MCCONL SUNNY     47  25  41 W15       30.13F
WINFIELD       SUNNY     47  27  45 SW16G23   30.18F
$$

KSZ007>012-019>026-033>040-048>060-102>105-152000-
NORTHEAST KANSAS

CITY           SKY/WX    TMP DP  RH WIND       PRES   REMARKS
CONCORDIA      SUNNY     46  25  43 SW14G22   30.01F
EMPORIA        SUNNY     46  22  38 SW16      30.09F
LAWRENCE       SUNNY     46  22  38 SW14      30.08F
MANHATTAN      SUNNY     48  26  42 SW16      30.05F
OLATHE IND     SUNNY     44  21  40 SW10G20   30.08F
OLATHE EXE     SUNNY     42  22  44 W12       30.08F
SALINA         SUNNY     50  25  37 SW20      30.05F
TOPEKA BILLARD SUNNY     46  22  38 W9        30.08F
TOPEKA FORBES  SUNNY     47  21  35 SW17      30.07F
$$




USA.gov is the U.S. government's official web portal to all federal, state and local government web resources and services.